User: anonymous   Login
Location: Bonn
(50.7330°N, 7.1000°E)
Time: 04:42:26
(UTC+02:00)
Language:

Cosmos 1933 Rocket - Orbit

View from above orbital plane
View from above orbital plane
View from above satellite
View from above satellite

Ground track
Ground track

The orbit data is extracted from the following two-line orbital elements,

1 18959U 88020B   17113.72221436 +.00000172 +00000-0 +18033-4 0  9999
2 18959 082.5361 321.7153 0015875 321.1439 038.8633 14.83333044551421
Epoch (UTC): 23 April 2017 17:19:59
Eccentricity: 0.0015875
inclination: 82.5361°
perigee height: 608 km
apogee height: 630 km
right ascension of ascending node: 321.7153°
argument of perigee: 321.1439°
revolutions per day: 14.83333044
mean anomaly at epoch: 38.8633°
orbit number at epoch: 55142

The dashed part of the orbit path shows where the satellite is in the earth's shadow,  

DLR